Ironwood, MI

5:59 PM CST on February 06, 2016 (GMT -0600)
Gogebic-Iron County

Weather History for KIWD - January, 2013

Change the Weather History Date:

Tuesday, January 15, 2013

  Actual Average Record
Temperature  
Mean Temperature 16 °F -  
Max Temperature 26 °F - - ()
Min Temperature 6 °F - - ()
Degree Days  
Heating Degree Days 49    
Moisture  
Dew Point 5 °F    
Average Humidity 61    
Maximum Humidity 79    
Minimum Humidity 40    
Precipitation  
Precipitation 0.00 in - - ()
Sea Level Pressure  
Sea Level Pressure 30.02 in    
Wind  
Wind Speed 9 mph (SSW)    
Max Wind Speed 21 mph    
Max Gust Speed 30 mph    
Visibility 10 miles    
Events      
T = Trace of Precipitation, MM = Missing Value Source: NWS Daily Summary

Daily Weather History Graph

Daily Weather History Graph

Search for Another Location

Airport or City:

Trip Planner

Search our weather history database for the weather conditions in past years. The results will help you decide how hot, cold, wet, or windy it might be!

Date:

Astronomy

Jan. 15, 2013 Rise Set
Actual Time 7:40 AM CST 4:40 PM CST
Civil Twilight 7:06 AM CST 5:14 PM CST
Nautical Twilight 6:28 AM CST 5:51 PM CST
Astronomical Twilight 5:52 AM CST 6:27 PM CST
Moon 9:27 AM CST (1/15) 9:51 PM CST (1/15)
Length of Visible Light 10h 08m
Length of Day
9h 00m
Waxing Crescent, 19% of the Moon is Illuminated
Jan 15
Waxing Crescent
Jan 18
First Quarter
Jan 26
Full
Feb 3
Last Quarter
Feb 10
New

Hourly Weather History & Observations

Time (CST) Temp. Windchill Dew Point Humidity Pressure Visibility Wind Dir Wind Speed Gust Speed Precip Events Conditions
12:15 AM 6.8 °F -2.0 °F -2.2 °F 67% 30.23 in 10.0 mi SSW 4.6 mph - N/A   Overcast
12:35 AM 6.8 °F - -2.2 °F 67% 30.23 in 10.0 mi Calm Calm - N/A   Overcast
12:55 AM 6.8 °F -2.0 °F -4.0 °F 61% 30.22 in 10.0 mi South 4.6 mph - N/A   Overcast
1:15 AM 6.8 °F -2.0 °F -2.2 °F 67% 30.22 in 10.0 mi SW 4.6 mph - N/A   Overcast
1:35 AM 6.8 °F -5.9 °F -2.2 °F 67% 30.21 in 10.0 mi SSW 8.1 mph - N/A   Overcast
1:55 AM 6.8 °F -4.8 °F -2.2 °F 67% 30.21 in 10.0 mi SSW 6.9 mph - N/A   Overcast
2:15 AM 8.6 °F -2.6 °F -2.2 °F 62% 30.21 in 10.0 mi SSW 6.9 mph - N/A   Overcast
2:35 AM 8.6 °F -2.6 °F -2.2 °F 62% 30.20 in 10.0 mi South 6.9 mph - N/A   Overcast
2:55 AM 8.6 °F -2.6 °F -2.2 °F 62% 30.19 in 10.0 mi South 6.9 mph - N/A   Overcast
3:15 AM 8.6 °F -3.7 °F -2.2 °F 62% 30.18 in 10.0 mi South 8.1 mph - N/A   Overcast
3:35 AM 8.6 °F -4.7 °F -2.2 °F 62% 30.17 in 10.0 mi South 9.2 mph - N/A   Overcast
3:55 AM 10.4 °F 0.8 °F -0.4 °F 62% 30.16 in 10.0 mi South 5.8 mph - N/A   Overcast
4:55 AM 10.4 °F -3.3 °F 1.4 °F 67% 30.13 in 10.0 mi SSW 10.4 mph - N/A   Mostly Cloudy
5:15 AM 10.4 °F -6.0 °F 3.2 °F 73% 30.13 in 10.0 mi SW 15.0 mph 19.6 mph N/A   Scattered Clouds
5:35 AM 10.4 °F -4.8 °F 1.4 °F 67% 30.13 in 10.0 mi SSW 12.7 mph 20.7 mph N/A   Mostly Cloudy
5:55 AM 10.4 °F -3.3 °F 3.2 °F 73% 30.13 in 10.0 mi SSW 10.4 mph 16.1 mph N/A   Overcast
6:15 AM 10.4 °F -1.5 °F 1.4 °F 67% 30.12 in 10.0 mi SSW 8.1 mph - N/A   Overcast
6:35 AM 10.4 °F 0.8 °F 3.2 °F 73% 30.12 in 10.0 mi SW 5.8 mph - N/A   Overcast
6:55 AM 10.4 °F -6.0 °F 3.2 °F 73% 30.12 in 10.0 mi SW 15.0 mph - N/A   Overcast
7:15 AM 10.4 °F -3.3 °F 3.2 °F 73% 30.12 in 10.0 mi SW 10.4 mph - N/A   Mostly Cloudy
7:35 AM 10.4 °F -4.1 °F 3.2 °F 73% 30.12 in 10.0 mi SW 11.5 mph - N/A   Scattered Clouds
7:55 AM 10.4 °F -2.4 °F 3.2 °F 73% 30.12 in 10.0 mi SW 9.2 mph - N/A   Overcast
8:15 AM 10.4 °F -1.5 °F 3.2 °F 73% 30.12 in 10.0 mi WSW 8.1 mph - N/A   Overcast
8:35 AM 10.4 °F -2.4 °F 3.2 °F 73% 30.13 in 10.0 mi SW 9.2 mph - N/A   Overcast
8:55 AM 12.2 °F -1.8 °F 5.0 °F 73% 30.13 in 10.0 mi SW 11.5 mph - N/A   Partly Cloudy
9:15 AM 12.2 °F -1.8 °F 5.0 °F 73% 30.12 in 10.0 mi SW 11.5 mph - N/A   Clear
9:35 AM 12.2 °F -3.7 °F 6.8 °F 79% 30.12 in 10.0 mi WSW 15.0 mph - N/A   Clear
9:55 AM 14.0 °F -0.2 °F 6.8 °F 73% 30.12 in 10.0 mi SW 12.7 mph - N/A   Clear
10:15 AM 15.8 °F 2.7 °F 5.0 °F 62% 30.11 in 10.0 mi SW 11.5 mph - N/A   Clear
10:35 AM 15.8 °F -0.2 °F 6.8 °F 68% 30.10 in 10.0 mi SW 17.3 mph 20.7 mph N/A   Clear
2:15 PM 24.8 °F 14.6 °F 5.0 °F 43% 30.01 in 10.0 mi WSW 10.4 mph - N/A   Partly Cloudy
2:35 PM 24.8 °F 14.6 °F 5.0 °F 43% 30.00 in 10.0 mi SW 10.4 mph - N/A   Clear
2:55 PM 26.6 °F 15.7 °F 6.8 °F 43% 29.99 in 10.0 mi SW 12.7 mph 21.9 mph N/A   Clear
3:15 PM 26.6 °F 15.2 °F 5.0 °F 40% 29.98 in 10.0 mi SSW 13.8 mph 19.6 mph N/A   Clear
3:35 PM 26.6 °F 15.2 °F 5.0 °F 40% 29.98 in 10.0 mi SSW 13.8 mph 19.6 mph N/A   Clear
3:55 PM 26.6 °F 16.8 °F 5.0 °F 40% 29.97 in 10.0 mi SSW 10.4 mph 17.3 mph N/A   Clear
4:15 PM 26.6 °F 18.2 °F 6.8 °F 43% 29.96 in 10.0 mi SSW 8.1 mph 21.9 mph N/A   Clear
4:35 PM 24.8 °F 13.4 °F 8.6 °F 50% 29.96 in 10.0 mi SSW 12.7 mph 19.6 mph N/A   Clear
4:55 PM 24.8 °F 14.6 °F 6.8 °F 46% 29.95 in 10.0 mi SSW 10.4 mph 16.1 mph N/A   Clear
5:35 PM 24.8 °F 11.5 °F 6.8 °F 46% 29.94 in 10.0 mi SSW 17.3 mph 21.9 mph N/A   Clear
5:55 PM 23.0 °F 10.6 °F 6.8 °F 50% 29.93 in 10.0 mi South 13.8 mph 20.7 mph N/A   Clear
6:15 PM 23.0 °F 11.1 °F 6.8 °F 50% 29.92 in 10.0 mi SSW 12.7 mph 24.2 mph N/A   Clear
6:35 PM 21.2 °F 7.3 °F 6.8 °F 54% 29.92 in 10.0 mi SSW 16.1 mph 23.0 mph N/A   Clear
6:55 PM 21.2 °F 7.8 °F 6.8 °F 54% 29.91 in 10.0 mi SSW 15.0 mph 21.9 mph N/A   Clear
7:15 PM 21.2 °F 8.3 °F 8.6 °F 58% 29.90 in 10.0 mi SSW 13.8 mph 18.4 mph N/A   Clear
7:35 PM 21.2 °F 8.3 °F 8.6 °F 58% 29.89 in 10.0 mi SSW 13.8 mph 19.6 mph N/A   Clear
7:55 PM 21.2 °F 7.8 °F 10.4 °F 63% 29.87 in 10.0 mi SSW 15.0 mph 21.9 mph N/A   Clear
8:15 PM 21.2 °F 7.3 °F 10.4 °F 63% 29.86 in 10.0 mi SSW 16.1 mph 24.2 mph N/A   Clear
8:35 PM 21.2 °F 6.8 °F 10.4 °F 63% 29.85 in 10.0 mi SSW 17.3 mph 24.2 mph N/A   Clear
8:55 PM 23.0 °F 11.1 °F 10.4 °F 59% 29.83 in 10.0 mi SSW 12.7 mph 21.9 mph N/A   Clear
9:15 PM 23.0 °F 11.1 °F 12.2 °F 63% 29.82 in 10.0 mi SSW 12.7 mph 21.9 mph N/A   Clear
9:35 PM 23.0 °F 8.0 °F 12.2 °F 63% 29.80 in 10.0 mi SSW 20.7 mph 26.5 mph N/A   Clear
9:55 PM 23.0 °F 10.1 °F 12.2 °F 63% 29.79 in 10.0 mi SSW 15.0 mph 21.9 mph N/A   Clear
10:15 PM 23.0 °F 10.1 °F 12.2 °F 63% 29.77 in 10.0 mi SSW 15.0 mph 23.0 mph N/A   Clear
10:35 PM 24.8 °F 11.9 °F 12.2 °F 59% 29.76 in 10.0 mi SSW 16.1 mph 26.5 mph N/A   Clear
10:55 PM 24.8 °F 11.1 °F 12.2 °F 59% 29.74 in 10.0 mi SSW 18.4 mph 29.9 mph N/A   Clear
11:15 PM 24.8 °F 11.9 °F 12.2 °F 59% 29.73 in 10.0 mi SSW 16.1 mph 28.8 mph N/A   Clear
11:35 PM 24.8 °F 11.5 °F 12.2 °F 59% 29.72 in 10.0 mi SSW 17.3 mph 28.8 mph N/A   Clear